TIANTONG-1 3

Last updated on Sun Jul 06 2025 00:02:46 GMT+0000 (Coordinated Universal Time)

1 47321U 21003A 25186.58092657 -.00000136 00000+0 00000+0 0 9996 2 47321 2.1768 322.0713 0001489 167.2003 85.1687 1.00270332 16484
UTC large
Height (km)
Speed (km/s)
/
Latitude / Longitude
Inclination (degrees)
Orbital Period (minutes)
Azimuth
Elevation
Range (km)
Doppler Factor

Next 0 passes for location: London (51.5072 / 0.1276)

Sorry there are no passes over London.